www.pogodaiklimat.ru

Погода и климат >> Архив погоды >> Боливия >> Кобиха


ПОГОДА в Кобихе

  • Прогноз погоды в Кобихе
  • Монитор погоды в Кобихе

АРХИВ ПОГОДЫ в Кобихе

Время (UTC), дата Ветер
(напр.,м/с)
 
Видим.   Явления Облачность Т
(С)
Тd
(С)
f
(%)
Тe
(С)
Тes
(С)
Комфортность P
(гПа)
Po
(гПа)
Тmin
(С)
Tmax
(С)
R
(мм)
R24
(мм)
S
(см)
12 15.08 Ю 2 10 км дым 3/0
[Ci fib]
+17.9 +11.6 67 +19 +21 1018.7 991.1 +16.4
15 15.08 Ю 5 10 км дым ясно +26.4 +12.8 43 +28 +36 жарко 1018.1 991.4
18 15.08 штиль 0 8000 м дым ясно +30.5 +14.6 38 +33 +54 опасность
солнечного
удара
1015.1 988.8
21 15.08 Ю 4 10 км дым ясно +31.4 +15.8 39 +34 +36 душно 1013.1 987.0 +32.3
12 16.08 штиль 0 6000 м дым ясно +18.2 +16.0 87 +19 +21 1016.6 989.1 +16.6
15 16.08 штиль 0 8000 м дым ясно +29.0 +17.5 50 +33 +54 опасность
солнечного
удара
1016.0 989.6
18 16.08 штиль 0 15 км дым ясно +34.0 +18.2 39 +38 +60 опасность
солнечного
удара
1013.2 987.3
21 16.08 штиль 0 15 км дым ясно +34.4 +16.3 34 +37 +41 очень
душно
1010.7 984.9 +36.1
12 17.08 штиль 0 5000 м дым ясно +20.0 +17.0 83 +23 +25 комфорт 1014.6 987.3 +18.5
15 17.08 СЗ 5 5000 м дым ясно +30.5 +19.9 53 +37 +45 очень
душно
1014.3 988.0
18 17.08 штиль 0 8000 м дым ясно +35.0 +19.5 40 +40 +62 опасность
солнечного
удара
1011.3 985.5
21 17.08 СЗ 2 8000 м дым 1/1 1050 м
[Cu hum]
+34.3 +19.2 41 +39 +42 очень
душно
1009.0 983.2 +36.0
12 18.08 штиль 0 5000 м дым 3/0 2000 м
[Ac trans]
+23.3 +20.0 82 +30 +33 очень
душно
1013.4 986.5 +20.8
15 18.08 С 4 7000 м дым ясно +31.7 +22.2 57 +41 +52 опасность
перегрева
1013.7 987.6
18 18.08 СЗ 6 7000 м дым 5/5 800 м
[Cu med, cong]
+35.6 +21.2 43 +43 +46 опасность
перегрева
1010.8 985.1
21 18.08 С 2 6000 м дым 4/4 800 м
[Cu hum]
+34.3 +21.4 47 +42 +44 опасность
перегрева
1009.1 983.3 +36.5
12 19.08 В 2 5000 м дым 6/1 600 м
[Sc Ac trans Ci fib]
+25.7 +22.0 80 +33 +35 очень
душно
1014.7 988.0 +22.6
15 19.08 С 2 6000 м дым 8/5 750 м
[Cu med, cong Ac trans Ci fib]
+30.6 +23.0 64 +41 +46 опасность
перегрева
1015.8 989.5
18 19.08 СВ 2 8000 м дым 6/4 800 м
[Cu med, cong Ci fib]
+32.3 +22.4 56 +42 +51 опасность
перегрева
1012.7 986.6
21 19.08 СЗ 4 8000 м дым 5/1 800 м
[Cu hum Ci fib]
+30.2 +22.6 64 +40 +41 очень
душно
1010.3 984.1 +33.4
12 20.08 ЮВ 4 5000 м дым 9/4 120 м
[Sc Ac As]
+23.3 +21.9 92 +32 +32 очень
душно
1016.0 989.0 +20.4
15 20.08 Ю 4 5000 м дым 8/5 700 м
[Cu Sc Ac trans Ci fib]
+27.0 +21.7 73 +35 +38 очень
душно
1017.0 990.3
18 20.08 Ю 4 7000 м дым 5/5 900 м
[Cu hum]
+32.0 +22.7 58 +42 +48 опасность
перегрева
1014.0 987.9
21 20.08 Ю 7 6000 м дым 5/5 900 м
[Cu hum]
+30.0 +21.9 62 +39 +39 очень
душно
1012.5 986.2 +32.6
12 21.08 ЮЗ 3 5000 м дым ясно +21.1 +17.5 80 +25 +27 комфорт 1018.8 991.5 +18.6
15 21.08 Ю 6 7000 м дым ясно +28.2 +17.4 52 +32 +39 душно 1019.4 992.8
18 21.08 Ю 5 8000 м дым ясно +32.3 +19.6 47 +38 +48 очень
душно
1015.5 989.4
21 21.08 ЮВ 4 7000 м дым ясно +31.7 +19.7 49 +38 +40 очень
душно
1013.3 987.2 +33.1

 

Местоположение метеостанции Кобиха (Боливия): широта -11.03 долгота -68.78 высота над уровнем моря 235 м.

В архиве по умолчанию представлена погода в Кобихе за последнюю неделю. Архивные данные за месяц целиком и за предыдущие месяцы, начиная с января 2011 года, Вы можете получить, выбрав интересующий диапазон дат из раскрывающегося списка и нажав кнопку "Ввод!".


*Определитесь, кто Вы:
робот инопланетянин человек

Внимание! Время в таблицах - всемирное. Для получения местного времени необходимо прибавить поправку, которая равна -4 ч.

Смотрите также архив погоды в соседних городах и на ближайших метеорологических станциях:

Погода в Эпитасиуландии (Акри, Бразилия) (6 км)
Погода в Риу-Бранку (Акри, Бразилия) (136 км)
Погода в Риу-Бранку (Акри, Бразилия) (157 км)
Погода в Пуэрто Мальдонадо (Перу) (181 км)
Погода в Национальном парке Чандлесс (Акри, Бразилия) (223 км)
Погода в Риберальте (Боливия) (292 км)
Погода в Бока-ду-Акри (Амазонас, Бразилия) (296 км)
Погода в Фейжо (Акри, Бразилия) (364 км)
Погода в Тарауаке (Акри, Бразилия) (385 км)
Погода в Рейесе (Боливия) (395 км)

Пояснения к столбцам:

Ветер - указаны скорость ветра в м/с - средняя за 10 мин, порывы в срок и между сроками (в фигурных скобках) и направление, откуда дует ветер: С - северный, СВ - северо-восточный, В - восточный, ЮВ - юго-восточный, Ю - южный, ЮЗ - юго-западный, З - западный, СЗ - северо-западный.
Видимость - горизонтальная дальность видимости в метрах или километрах. При видимости от 1 до 10 км при отсутствии осадков обычно наблюдается дымка, при ухудшении видимости до 1 км и менее - туман. В сухую погоду видимость может ухудшаться дымом, пылью или мглою.
Явления - указаны атмосферные явления, наблюдавшиеся в срок или в последний час перед сроком; фигурными скобками обозначены явления, наблюдавшиеся между сроками (за 1-3 часа до срока); квадратными скобками обозначены град или гололедные отложения с указанием их диаметра в мм.
Облачность - указаны через наклонную черту общая и нижняя облачность в баллах и высота нижней границы облаков в метрах; квадратными скобками обозначены формы облаков: Ci - перистые, Cs - перисто-слоистые, Cc - перисто-кучевые, Ac - высококучевые, As - высокослоистые, Sc - слоисто-кучевые, Ns - слоисто-дождевые, Cu - кучевые, Cb - кучево-дождевые. Подробнее классификацию облаков см. в Атласе облаков (PDF).
T - Температура воздуха - температура, измеренная на высоте 2 м над землей.
Td - Температура точки росы - температура, при понижении до которой содержащийся в воздухе водяной пар достигнет насыщения.
f - Относительная влажность воздуха - влажноcть воздуха, измеренная на высоте 2 м над землей.
Te - Эффективная температура - температура, которую ощущает одетый по сезону человек в тени. Характеристика душности погоды. При расчете учитывается влияние влажности воздуха и скорости ветра на теплоощущения человека.
Tes - Эффективная температура на солнце - температура, которую ощущает человек, с поправкой на солнечный нагрев. Характеристика знойности погоды. Зависит от высоты солнца над горизонтом, облачности и скорости ветра. Ночью, в пасмурную погоду, а также при ветре 12 м/с и более поправка равна нулю.
P - Атмосферное давление - приведенное к уровню моря атмосферное давление.
Po - Атмосферное давление - измеренное на уровне метеостанции атмосферное давление.
Tmin - Минимальная температура - минимум температуры воздуха на высоте 2 м над землей.
Tmax - Максимальная температура - максимум температуры воздуха на высоте 2 м над землей.
R - Количество осадков - Количество выпавших осадков за период времени, мм. При наведении курсора мыши на число - период времени, за который выпало указанное количество осадков.
R24 - Количество осадков - Количество выпавших осадков за 24 часа, мм.
S - Снежный покров - Высота снежного покрова, см. При наведении курсора мыши на число - состояние снежного покрова и степень покрытия местности в баллах.